Regional Weather Roundup
Issued by NWS

Home | Current Version | Previous Version | Text Only | Print | Product List | Glossary On
Versions: 1 2 3 4 5 6 7 8 9 10 11 12 13 14 15 16 17 18 19 20 21 22 23 24 25 26 27 28 29 30 31 32 33 34 35 36 37 38 39 40 41 42 43 44 45 46 47 48 49 50
000
ASHW40 PHFO 252143
RWRHI

WEATHER ROUNDUP FOR HAWAII
NATIONAL WEATHER SERVICE HONOLULU HI
1100 AM HST SUN JAN 25 2015

THIS IS AN AUTOMATED REPORT THAT HAS NOT BEEN QUALITY CONTROLLED.

NOTE..."FAIR" INDICATES FEW OR NO CLOUDS BELOW 12,000 FEET WITH NO
SIGNIFICANT WEATHER AND/OR OBSTRUCTIONS TO VISIBILITY.

* - THESE SITES REPORT LIMITED FIELDS

HIZ001>004-252200-
KAUAI-NIIHAU-

CITY           SKY/WX    TMP DP  RH WIND       PRES   REMARKS
LIHUE APT      CLOUDY    75  53  46 NE14      30.10F
PORT ALLEN*      N/A     75 N/A N/A NE17G23     N/A
POIPU*           N/A     75 N/A N/A N8G18       N/A
PRINCEVILLE*     N/A     70 N/A N/A MISG        N/A
KOKOLE POINT*  NOT AVBL
MOLOAA DAIRY*  NOT AVBL
WAIMEA HTS*      N/A     79  52  38 SW6G12      N/A
PUU OPAE*        N/A     66  52  59 CALM        N/A
PUU LUA*       NOT AVBL
MAKAHA RIDGE*  NOT AVBL
$$

HIZ005>011-252200-
OAHU-

CITY           SKY/WX    TMP DP  RH WIND       PRES   REMARKS
HONOLULU       PTSUNNY   76  62  62 NE20G28   30.05F
KALAELOA       SUNNY     76  60  57 NE10G21   30.06F
KANEOHE MCB    CLOUDY    73  61  65 NE12      30.08F
WHEELER FIELD  PTSUNNY   70  60  72 N9        30.08F
BELLOWS*         N/A    N/A N/A N/A NE16G22     N/A
KAHUKU*          N/A    N/A N/A N/A E6G13       N/A
WHEELER*       NOT AVBL
WAIANAE HARBOR NOT AVBL
DILLINGHAM*      N/A     72  61  68 MISG        N/A
KAHUKU TRN*      N/A     64  57  77 NE6G16      N/A
KAWAILOA*        N/A     66  61  82 NE12G20     N/A
KII*             N/A     72  61  68 NE12G18     N/A
MAKUA RANGE*     N/A    N/A N/A N/A E13G23      N/A
OAHU FOREST NW   N/A    N/A N/A N/A CALM        N/A
SCHOFIELD BRK*   N/A     63  54  72 CALM        N/A
SCHOFIELD S*   NOT AVBL
WAIANAE VLY*     N/A    N/A N/A N/A NE9G25      N/A
KUAOKALA*        N/A     66  55  68 CALM        N/A
HONOULIUULI*   NOT AVBL
MOKUOLOE IS*     N/A    N/A N/A N/A MISG        N/A
PALEHUA*         N/A     79  61  53 CALM        N/A
WAIAWA PHB*    NOT AVBL
$$

HIZ012>013-252200-
MOLOKAI-

CITY           SKY/WX    TMP DP  RH WIND       PRES   REMARKS
MOLOKAI AIRPT  PTSUNNY   71  65  81 NE15G23   30.07S
KALAUPAPA      NOT AVBL
MAKAPULAPAI*     N/A     70  66  88 SE12G18     N/A
MOLOKAI 1*       N/A     66  61  82 NE6G22      N/A
PUU ALII*        N/A     57  57 100 E2          N/A
$$

HIZ016-252200-
KAHOOLAWE-

CITY           SKY/WX    TMP DP  RH WIND       PRES   REMARKS
KAHOOLAWE*       N/A     66 N/A N/A NE17G26     N/A
HAKIOAWA*        N/A     69  66  90 MISG      30.45F
HONOKANAIA*      N/A     77  65  65 N20G39    30.05R
KANELOA*         N/A     73  66  78 MISG      29.25R
KEALIALALO*    NOT AVBL
LUA MAKIKA*    NOT AVBL
$$

HIZ014>015-252200-
LANAI-

CITY           SKY/WX    TMP DP  RH WIND       PRES   REMARKS
LANAI CITY     FAIR      72  64  75 NE24      30.08S
LANAI 1*         N/A     70  68  94 NE21G33     N/A
$$

HIZ017>028-252200-
MAUI-

CITY           SKY/WX    TMP DP  RH WIND       PRES   REMARKS
KAHULUI        LGT RAIN  70  66  88 NE17      30.06F FOG
KAPALUA-W MAUI LGT RAIN  72  66  83 NE18      30.07
HANA AIRPORT   LGT RAIN  70  66  88 NE12      30.08F VSB 1/2
HANA*            N/A     70 N/A N/A N8G17       N/A
HALEAKALA SUMM   N/A     50  14  23 N15G29      N/A
MAALAEA BAY*   NOT AVBL
HALEAKALA*     NOT AVBL
KAUPO GAP*       N/A     63  63 100 CALM        N/A
KULA 1*          N/A     60  48  65 W3          N/A
$$

HIZ023>026-252200-
BIG ISLAND OF HAWAII COAST AND LOWER SLOPES-

CITY           SKY/WX    TMP DP  RH WIND       PRES   REMARKS
KAILUA KONA    PTSUNNY   77  68  73 N14       30.00F
HILO           CLOUDY    74  69  85 NE15      30.02F
HONOKAA*       NOT AVBL
KAWAIHAE MWT*    N/A     82 N/A N/A SW3         N/A
KAWAIHAE*        N/A     81 N/A N/A S3          N/A
SOUTH POINT*     N/A     72 N/A N/A NE15G22     N/A
UPOLU AIRPORT*   N/A    N/A N/A N/A NE20G26     N/A
KAMUELA*       NOT AVBL
HAKALAU*         N/A     57  56  98 NE8         N/A
KALOKO-HONOKO*   N/A     79  68  69 N10       29.99S
PALI 2*          N/A     72  63  73 NE9G20      N/A
KEALAKOMO*       N/A     73  70  88 NE10G16     N/A
KAUPULEHU*       N/A     75  64  69 W7G14       N/A
KAPAPALA*        N/A     68  64  88 E2G8        N/A
LOWER KAHUKU*    N/A     63  63 100 NE2G12      N/A
PUHE CS*       NOT AVBL
PUHO CS*         N/A     81  67  62 W3          N/A
PTA KEAMUKU*     N/A     66  63  88 NE5G26      N/A
WAIKOLOA*        N/A     81  63  54 NE15G26     N/A
$$

HIZ027>028-252200-
BIG ISLAND OF HAWAII INTERIOR AND SUMMMITS-

CITY           SKY/WX    TMP DP  RH WIND       PRES   REMARKS
BRADSHAW FIELD MOSUNNY   65  55  68 S7G15     30.31F
MK VISITOR CEN NOT AVBL
MAUNA KEA*       N/A     45   3  18 N6          N/A
MAUNA LOA*       N/A    N/A N/A N/A MISG        N/A
MAUNA LOA 1*   NOT AVBL
PTA KIPUKA*      N/A     64  55  72 W7          N/A
PTA RANGE 17*    N/A     63  54  72 W8          N/A
PTA WEST*        N/A     70  57  64 W5G10       N/A
NENE CABIN*      N/A    N/A N/A N/A E7G13       N/A
AHUMOA*          N/A     59  58  95 N9G16       N/A
PTA PORTABLE*  NOT AVBL
PUU MALI*      NOT AVBL
$$

HIC003-252200-
NORTHWEST ISLANDS-

CITY           SKY/WX    TMP DP  RH WIND       PRES   REMARKS
MIDWAY ISLAND  CLOUDY    70  59  68 S13       30.14S
MIDWAY NOS*    NOT AVBL
FRENCH FRIGATE NOT AVBL
$$

PHZ110>124-180-252200-
BUOY REPORTS

STATION/POSITION TIME  TEMP    WIND        PRES    WAVE   SWELL
                       AIR SEA DIR/SP/G            HT/PER HT/DIR
                 (UTC) (F)     (DEG/KT/KT) (MB)    (FT/S) (FT/D)
BUOY 51001       NOT AVBL
BUOY 51101       2100   69 73   40/ 12/ 16 1021.1R  10/14  10/290
BUOY 51100       2000   69 74   50/ 17/ 21 1018.9R
BUOY 51003       2100   75 78   60/ 16/ 19 1016.9F  12/14  11
BUOY 51004       2045   77 78   90/ 12/ 14 1015.1F   8/11
BARBERS PT BUOY  NOT AVBL
WAIMEA BAY BUOY  2100      75                N/A    10/14   8/310
KAILUA BAY BUOY  2100      75                N/A     7/ 8   2/360
LANAI BUOY       2100      77                N/A     4/14   3/290
BARBERS PT 2     2100      77                N/A     7/14   7/290
PAUWELA MAUI     2100      76                N/A    10/15   8/320
HILO             2100      77                N/A    10/14
KANEOHE BAY BUOY 2100      75                N/A     6/ 8   3/340
HANALEI KAUAI    NOT AVBL
KAHULUI HARBOR   2100   70 76  350/ 12/ 15 1017.8F
HONOLULU HARBOR  2100   73 75   40/  9/ 22 1017.1F
KILO NALU        NOT AVBL
HILO HARBOR      2100   74      30/ 17/ 21 1016.2F
MOKUOLOE         2100      75              1018.4F
NAWILIWILI       2100      76                N/A
WHOTS BUOY       NOT AVBL
BUOY 51028       NOT AVBL
$$

......................KEY........................................
  SKY/WX - SKY CONDITIONS/PRESENT WEATHER
  TMP    - TEMPERATURE IN FAHRENHEIT
  DWPT   - DEWPOINT IN FAHRENHEIT
  RH     - RELATIVE HUMIDITY IN PERCENT
  WIND   - DIRECTION AND SPEED /MPH FOR ISLANDS...KTS FOR BUOYS/
  PRES   - MEAN SEA LEVEL PRESSURE IN INCHES OF HG
  VSB    - VISIBILITY IN MILES
  HX     - HEAT INDEX
  WCI    - WIND CHILL INDEX
  VRB    - VARIABLE WIND DIRECTION
  N/A    - NOT AVAILABLE



USA.gov is the U.S. government's official web portal to all federal, state and local government web resources and services.